Regional Weather Roundup
Issued by NWS Glasgow, MT

Home | Current Version | Previous Version | Text Only | Print | Product List | Glossary On
Versions: 1 2 3 4 5 6 7 8 9 10 11 12 13 14 15 16 17 18 19 20 21 22 23 24 25 26 27 28 29 30 31 32 33 34 35 36 37 38 39 40 41 42 43 44 45 46 47 48 49 50
000
ASUS45 KGGW 091215
RWRGGW
HOURLY REGIONAL WEATHER ROUNDUP FOR NORTHEAST MONTANA
NATIONAL WEATHER SERVICE GLASGOW MONTANA
500 AM MST TUE FEB 09 2016

NOTE: "FAIR" INDICATES FEW OR NO CLOUDS BELOW 12,000 FEET WITH NO
SIGNIFICANT WEATHER AND/OR OBSTRUCTIONS TO VISISBILITY.

NORTHEAST MONTANA


CITY           SKY/WX    TMP DP  RH WIND       PRES   REMARKS
GLASGOW        CLOUDY    29  24  82 W6        30.24S
6HR MIN TEMP:  25; 6HR MAX TEMP:  31;

PLENTYWOOD       N/A     31  27  85 NW6         N/A
WOLF POINT     CLOUDY    31  25  78 W7        30.24R
JORDAN           N/A     29  27  92 W8        30.25R
SIDNEY         CLOUDY    34  21  60 NW12      30.20S
GLENDIVE       CLOUDY    34  27  75 NW8       30.24R
SCOBEY           N/A     31  19  61 CALM      30.17R

FORT PECK REPORTS


CITY           SKY/WX    TMP DP  RH WIND       PRES   REMARKS
FORT PECK        N/A     33  30  88 SW3         N/A
THE PINES        N/A     33  29  85 SW3         N/A

SOUTHEAST MONTANA


CITY           SKY/WX    TMP DP  RH WIND       PRES   REMARKS
BILLINGS       CLEAR     33  23  66 SW8       30.31R
MILES CITY     PTCLDY    28  24  85 SE3       30.25R
BAKER          CLOUDY    30  21  69 W12       30.20F
LIVINGSTON     CLOUDY    45  24  43 W20       30.40R

CENTRAL MONTANA


CITY           SKY/WX    TMP DP  RH WIND       PRES   REMARKS
HAVRE          CLOUDY    32  27  81 SW7       30.26S
LEWISTOWN      CLEAR     32  23  69 W7        30.31S
GREAT FALLS    CLOUDY    41  29  62 SW16      30.31S
CUT BANK       CLEAR     41  29  62 W18       30.29R
HELENA         CLOUDY    31  27  85 NW3       30.43R
BUTTE          CLOUDY    13  10  88 S5        30.48F FOG
BOZEMAN        CLOUDY    17  15  92 S5        30.46S

WESTERN MONTANA


CITY           SKY/WX    TMP DP  RH WIND       PRES   REMARKS
MISSOULA       CLEAR     23  20  88 CALM      30.54F FOG
KALISPELL      NOT AVBL

NORTH DAKOTA


CITY           SKY/WX    TMP DP  RH WIND       PRES   REMARKS
WILLISTON      CLOUDY    27  21  78 NE5       30.20R
DICKINSON      CLOUDY    23  17  78 S7        30.16F
MINOT          CLOUDY    26   9  48 SW9       30.21S
BISMARCK       CLOUDY    25  12  58 W5        30.27R

SOUTHERN SASKATCHEWAN


CITY           SKY/WX    TMP DP  RH WIND       PRES   REMARKS
REGINA         MOCLDY    19  18  93 NW6       30.20S
MOOSE JAW      MOCLDY    27  23  86 NW8       30.22F
ESTEVAN        PTCLDY    21  18  86 S5        30.20R
SWIFT CURRENT  CLOUDY    32  27  80 W7        30.20S




USA.gov is the U.S. government's official web portal to all federal, state and local government web resources and services.